Home > Weather > Jackson > Past weeks

Flag for USA Past Weather in Jackson, Wyoming, USA — Yesterday and Last 2 Weeks

Now
34 °F

Clear.


Feels Like: 28 °F
Forecast: 38 / 74 °F
Wind: 7 mph from Northeast

Location: Jackson Hole

Current Time: Aug 27, 2016 at 5:55:44 AM

Latest Report: Aug 27, 2016 at 5:35 AM


Visibility: 10 mi

Pressure: 30.15 "Hg (23.79 "Hg at 1901m altitude)

Humidity: 75%

Dew Point: 27 °F

Location of JacksonLocation

Past Weather in Jackson — Graph

°F

Jackson Temperature Yesterday

Maximum temperature yesterday: 72 °F (at 4:08 PM)
Minimum temperature yesterday: 37 °F (at 6:35 AM)
Average temperature yesterday: 49 °F

High & Low Weather Summary for the Past Weeks

 TemperatureHumidityPressure
High88 °F (Aug 16, 3:15 PM)100% (Aug 18, 11:15 PM)30.37 "Hg (Aug 18, 11:15 PM)
Low32 °F (Aug 20, 6:15 AM)9% (Aug 22, 3:45 PM)30.02 "Hg (Aug 21, 4:47 PM)
Average57 °F47%30.22 "Hg
* Reported Aug 12 4:15 AM — Aug 27 4:35 AM, Jackson, Weather by CustomWeather, © 2016

Note: Actual official high and low records may vary slightly from our data, if they occured in-between our weather recording intervals... More about our weather records

Advertising

Jackson Weather History for the Previous 24 Hours

Scroll right to see more
 ConditionsComfort  
Time TempWeatherWind HumidityBarometerVisibility
4:35 AM
Sat, Aug 27
34 °FClear.6 mph75%30.15 "Hg10 mi
4:15 AM36 °FClear.5 mph70%30.15 "Hg10 mi
3:55 AM34 °FClear.6 mph75%30.15 "Hg10 mi
3:35 AM34 °FClear.6 mph70%30.15 "Hg10 mi
3:15 AM36 °FClear.5 mph70%30.14 "Hg10 mi
2:55 AM36 °FClear.8 mph70%30.14 "Hg10 mi
2:35 AM34 °FClear.9 mph70%30.14 "Hg10 mi
2:15 AM36 °FClear.7 mph70%30.14 "Hg10 mi
1:55 AM37 °FClear.7 mph65%30.14 "Hg10 mi
1:35 AM37 °FClear.8 mph65%30.14 "Hg10 mi
1:15 AM39 °FClear.5 mph61%30.13 "Hg10 mi
12:55 AM37 °FClear.5 mph56%30.13 "Hg10 mi
12:35 AM45 °FClear.No wind46%30.13 "Hg10 mi
12:15 AM39 °FClear.No wind48%30.12 "Hg10 mi
11:55 PM
Fri, Aug 26
41 °FClear.No wind61%30.12 "Hg10 mi
11:35 PM43 °FClear.No wind57%30.12 "Hg10 mi
11:15 PM43 °FClear.No wind39%30.12 "Hg10 mi
10:55 PM46 °FClear.No wind34%30.12 "Hg10 mi
10:35 PM46 °FClear.No wind37%30.12 "Hg10 mi
10:15 PM48 °FClear.No wind34%30.12 "Hg10 mi
9:55 PM52 °FClear.5 mph38%30.12 "Hg10 mi
9:35 PM55 °FClear.6 mph26%30.11 "Hg10 mi
9:15 PM52 °FClear.7 mph30%30.11 "Hg10 mi
8:55 PM54 °FSunny.No wind26%30.10 "Hg10 mi
7:48 PM63 °FSunny.5 mph19%30.09 "Hg10 mi
6:48 PM68 °FSunny.7 mph16%30.08 "Hg10 mi
5:50 PM72 °FSunny.16 mph14%30.07 "Hg10 mi
4:56 PM70 °FPassing clouds.8 mph20%30.07 "Hg10 mi
4:08 PM72 °FSunny.9 mph19%30.07 "Hg10 mi
2:58 PM70 °FScattered clouds.10 mph23%30.09 "Hg10 mi
1:55 PM66 °FSunny.7 mph30%30.11 "Hg10 mi
12:45 PM66 °FSunny.9 mph30%30.14 "Hg10 mi
11:52 AM63 °FSunny.8 mph34%30.16 "Hg10 mi
9:55 AM54 °FSunny.No wind51%30.20 "Hg10 mi
8:55 AM46 °FSunny.3 mph66%30.21 "Hg10 mi
6:55 AM37 °FPassing clouds.2 mph87%30.21 "Hg10 mi
6:35 AM37 °FPassing clouds.6 mph87%30.21 "Hg10 mi
6:15 AM41 °FClear.3 mph76%30.21 "Hg10 mi
5:55 AM39 °FClear.No wind81%30.21 "Hg10 mi
5:35 AM41 °FClear.No wind76%30.21 "Hg10 mi
5:15 AM41 °FPassing clouds.3 mph76%30.21 "Hg10 mi
Weather by CustomWeather, © 2016

See weather overviewHow to use our weather pages